This is the latest recevied weather packets stored in our database for station/object WX6HNX-6. If no packets are shown the sender has not sent any weather packets the latest 1 day(s).
| Time | Temp. | Humidity | Pressure | Rain* | Wind** | Luminosity | Snow |
|---|---|---|---|---|---|---|---|
| 1778081856 | 16.11° C | 75% | 1020.6 hPa | 0 mm | 1.34 m/s, 328° | - | - |
| 1778081555 | 16.11° C | 75% | 1020.6 hPa | 0 mm | 1.34 m/s, 332° | - | - |
| 1778081255 | 15.56° C | 76% | 1020.6 hPa | 0 mm | 3.13 m/s, 315° | - | - |
| 1778080955 | 15.56° C | 77% | 1020.6 hPa | 0 mm | 2.24 m/s, 338° | - | - |
| 1778080414 | 15° C | 78% | 1020.6 hPa | 0 mm | 1.79 m/s, 312° | - | - |
| 1778080115 | 14.44° C | 79% | 1020.6 hPa | 0 mm | 1.79 m/s, 317° | - | - |
| 1778079815 | 13.89° C | 79% | 1020.6 hPa | 0 mm | 1.79 m/s, 283° | - | - |
| 1778079514 | 13.89° C | 80% | 1020.6 hPa | 0 mm | 1.34 m/s, 290° | - | - |
| 1778079215 | 13.33° C | 80% | 1020.6 hPa | 0 mm | 1.79 m/s, 295° | - | - |
| 1778078615 | 12.78° C | 80% | 1020.7 hPa | 0 mm | 0.89 m/s, 258° | - | - |
| 1778078314 | 12.22° C | 80% | 1020.7 hPa | 0 mm | 1.79 m/s, 246° | - | - |
| 1778078015 | 12.22° C | 81% | 1020.6 hPa | 0 mm | 1.79 m/s, 244° | - | - |
| 1778077715 | 12.22° C | 81% | 1020.5 hPa | 0 mm | 1.79 m/s, 245° | - | - |
| 1778077414 | 11.67° C | 81% | 1020.5 hPa | 0 mm | 1.34 m/s, 242° | - | - |
| 1778077114 | 11.67° C | 81% | 1020.4 hPa | 0 mm | 1.34 m/s, 245° | - | - |
| 1778076515 | 11.11° C | 81% | 1020.4 hPa | 0 mm | 1.79 m/s, 244° | - | - |
| 1778076215 | 10.56° C | 81% | 1020.4 hPa | 0 mm | 1.79 m/s, 242° | - | - |
| 1778075914 | 10.56° C | 81% | 1020.3 hPa | 0 mm | 1.34 m/s, 240° | - | - |
| 1778075615 | 10.56° C | 81% | 1020.3 hPa | 0 mm | 1.34 m/s, 246° | - | - |
| 1778075315 | 10° C | 81% | 1020.2 hPa | 0 mm | 0.89 m/s, 239° | - | - |
| 1778075014 | 10° C | 81% | 1020.2 hPa | 0 mm | 1.34 m/s, 234° | - | - |
| 1778074715 | 10° C | 81% | 1020.1 hPa | 0 mm | 1.34 m/s, 236° | - | - |
| 1778074414 | 9.44° C | 81% | 1020.1 hPa | 0 mm | 0.89 m/s, 242° | - | - |
| 1778074115 | 9.44° C | 81% | 1020 hPa | 0 mm | 0.89 m/s, 245° | - | - |
| 1778073639 | 9.44° C | 81% | 1019.9 hPa | 0 mm | 0.89 m/s, 234° | - | - |
* Rain latest hour (hover to see other rain measurements)
** Current wind speed in m/s (hover to see current wind gust speed)